Apalachicola, FL

8:39 AM EDT on September 28, 2016 (GMT -0400)
Apalachicola Municipal

Weather History for KAAF - January, 2013

Change the Weather History Date:

Saturday, January 19, 2013

  Actual Average Record
Temperature  
Mean Temperature 57 °F 52 °F  
Max Temperature 69 °F 63 °F 76 °F (1942)
Min Temperature 44 °F 41 °F 15 °F (1977)
Degree Days  
Heating Degree Days 8    
Month to date heating degree days 95  
Since 1 July heating degree days 543  
Cooling Degree Days 0    
Month to date cooling degree days 28  
Year to date cooling degree days 28  
Growing Degree Days 6 (Base 50)    
Moisture  
Dew Point 42 °F    
Average Humidity 61    
Maximum Humidity 72    
Minimum Humidity 49    
Precipitation  
Precipitation 0.00 in 0.15 in 2.40 in (1991)
Month to date precipitation 0.30 2.60  
Year to date precipitation 0.30 2.60  
Sea Level Pressure  
Sea Level Pressure 30.30 in    
Wind  
Wind Speed 8 mph (NE)    
Max Wind Speed 13 mph    
Max Gust Speed 16 mph    
Visibility 10 miles    
Events      
T = Trace of Precipitation, MM = Missing Value Source: NWS Daily Summary

Daily Weather History Graph

Daily Weather History Graph

Search for Another Location

Airport or City:

Trip Planner

Search our weather history database for the weather conditions in past years. The results will help you decide how hot, cold, wet, or windy it might be!

Date:

Astronomy

Jan. 19, 2013 Rise Set
Actual Time 7:35 AM EST 6:06 PM EST
Civil Twilight 7:09 AM EST 6:32 PM EST
Nautical Twilight 6:40 AM EST 7:01 PM EST
Astronomical Twilight 6:12 AM EST 7:30 PM EST
Moon 12:27 PM EST (1/19) 1:15 AM EST (1/19)
Length of Visible Light 11h 22m
Length of Day
10h 31m
First Quarter, 57% of the Moon is Illuminated
Jan 19
First Quarter
Jan 26
Full
Feb 3
Last Quarter
Feb 10
New
Feb 17
First Quarter

Hourly Weather History & Observations

Time (EST) Temp. Windchill Dew Point Humidity Pressure Visibility Wind Dir Wind Speed Gust Speed Precip Events Conditions
12:53 AM 46.9 °F - 33.1 °F 59% 30.37 in 10.0 mi ENE 5.8 mph - N/A   Scattered Clouds
1:53 AM 46.0 °F 42.5 °F 33.1 °F 61% 30.35 in 10.0 mi NE 6.9 mph - N/A   Scattered Clouds
2:53 AM 46.0 °F 41.9 °F 30.0 °F 54% 30.36 in 10.0 mi NE 8.1 mph - N/A   Overcast
3:53 AM 46.0 °F 40.6 °F 30.0 °F 54% 30.34 in 10.0 mi NE 11.5 mph - N/A   Overcast
4:53 AM 46.0 °F 41.4 °F 30.0 °F 54% 30.33 in 10.0 mi NE 9.2 mph - N/A   Mostly Cloudy
5:53 AM 46.0 °F 41.4 °F 30.9 °F 56% 30.33 in 10.0 mi ENE 9.2 mph - N/A   Overcast
6:53 AM 46.0 °F 41.4 °F 32.0 °F 58% 30.33 in 10.0 mi ENE 9.2 mph - N/A   Scattered Clouds
7:53 AM 45.0 °F 40.6 °F 33.1 °F 63% 30.34 in 10.0 mi NNE 8.1 mph - N/A   Mostly Cloudy
8:53 AM 48.9 °F - 35.1 °F 59% 30.36 in 10.0 mi NE 9.2 mph - N/A   Overcast
9:53 AM 52.0 °F - 37.0 °F 57% 30.38 in 10.0 mi ENE 11.5 mph - N/A   Mostly Cloudy
10:53 AM 57.0 °F - 42.1 °F 57% 30.37 in 10.0 mi East 8.1 mph - N/A   Scattered Clouds
11:53 AM 62.1 °F - 45.0 °F 53% 30.34 in 10.0 mi East 8.1 mph - N/A   Overcast
12:53 PM 64.9 °F - 48.9 °F 56% 30.30 in 10.0 mi ESE 6.9 mph - N/A   Partly Cloudy
1:53 PM 66.0 °F - 50.0 °F 56% 30.25 in 10.0 mi ESE 8.1 mph - N/A   Mostly Cloudy
2:53 PM 68.0 °F - 50.0 °F 52% 30.23 in 10.0 mi ESE 8.1 mph - N/A   Mostly Cloudy
3:53 PM 68.0 °F - 48.9 °F 50% 30.22 in 10.0 mi SE 8.1 mph - N/A   Mostly Cloudy
4:53 PM 64.9 °F - 50.0 °F 58% 30.22 in 10.0 mi SE 3.5 mph - N/A   Overcast
5:53 PM 63.0 °F - 50.0 °F 63% 30.23 in 10.0 mi West 3.5 mph - N/A   Overcast
6:53 PM 61.0 °F - 52.0 °F 72% 30.23 in 10.0 mi NW 4.6 mph - N/A   Overcast
7:53 PM 60.1 °F - 51.1 °F 72% 30.24 in 10.0 mi NNW 3.5 mph - N/A   Overcast
8:53 PM 60.1 °F - 50.0 °F 69% 30.25 in 10.0 mi NNE 4.6 mph - N/A   Overcast
9:53 PM 61.0 °F - 46.0 °F 58% 30.25 in 10.0 mi NNE 6.9 mph - N/A   Overcast
10:53 PM 60.1 °F - 45.0 °F 57% 30.24 in 10.0 mi NNE 8.1 mph - N/A   Overcast
11:53 PM 60.1 °F - 44.1 °F 55% 30.21 in 10.0 mi North 10.4 mph - N/A   Overcast